THY6805 LTBJ-LTFJ

Flight info

Callsign THY6805
Flight time 0h 41m
Altitude 27000
Route LTBJ/34R N0438F270 BERG1T BERGO UG80 DUGLA UY371 VUTZO VUTZ1G LTFJ/06R
Aircraft B738/M-CDT/C

Departure

Time 2026-05-04 03:39
Airport Adnan Menderes International Airport (LTBJ)

Arrival

Time 2026-05-04 04:21
Airport Istanbul Sabiha Gökçen International Airport (LTFJ)
Time Latitude Longitude Altitude Speed Heading
2026-05-04 03:27 38.28273 27.15381 393 ft 0 kts 256°
2026-05-04 03:36 38.28268 27.15378 393 ft 1 kts 201°
2026-05-04 03:36 38.28265 27.15388 393 ft 1 kts 101°
2026-05-04 03:37 38.28264 27.15436 393 ft 9 kts 101°
2026-05-04 03:37 38.28206 27.15525 393 ft 17 kts 146°
2026-05-04 03:37 38.28072 27.15577 393 ft 23 kts 166°
2026-05-04 03:37 38.27904 27.15628 392 ft 25 kts 167°
2026-05-04 03:38 38.27773 27.15731 391 ft 23 kts 103°
2026-05-04 03:38 38.27800 27.15945 380 ft 26 kts 77°
2026-05-04 03:38 38.27876 27.16122 380 ft 24 kts
2026-05-04 03:38 38.28063 27.16047 384 ft 50 kts 347°
2026-05-04 03:39 38.28637 27.15875 392 ft 118 kts 346°
2026-05-04 03:39 38.29613 27.15580 409 ft 171 kts 346°
2026-05-04 03:39 38.30807 27.15221 1064 ft 176 kts 346°
2026-05-04 03:39 38.32015 27.14875 1748 ft 180 kts 347°
2026-05-04 03:40 38.33222 27.14516 2140 ft 179 kts 346°
2026-05-04 03:40 38.34432 27.14146 2514 ft 180 kts 346°
2026-05-04 03:40 38.35654 27.13773 2900 ft 181 kts 346°
2026-05-04 03:40 38.36886 27.13399 3276 ft 182 kts 346°
2026-05-04 03:41 38.38176 27.13008 3711 ft 201 kts 346°
2026-05-04 03:41 38.39593 27.12579 4116 ft 215 kts 346°
2026-05-04 03:41 38.41070 27.12132 4515 ft 227 kts 346°
2026-05-04 03:41 38.42647 27.11655 4916 ft 239 kts 346°
2026-05-04 03:42 38.44280 27.11162 5439 ft 244 kts 346°
2026-05-04 03:42 38.45958 27.10654 5975 ft 253 kts 346°
2026-05-04 03:42 38.47714 27.10123 6504 ft 266 kts 346°
2026-05-04 03:42 38.49548 27.09568 7082 ft 275 kts 346°
2026-05-04 03:43 38.51409 27.09005 7631 ft 275 kts 346°
2026-05-04 03:43 38.53286 27.08436 8184 ft 278 kts 346°
2026-05-04 03:43 38.55175 27.07864 8755 ft 280 kts 346°
2026-05-04 03:43 38.57073 27.07288 9299 ft 281 kts 346°
2026-05-04 03:44 38.58980 27.06710 9849 ft 282 kts 346°
2026-05-04 03:44 38.60899 27.06177 10390 ft 284 kts 353°
2026-05-04 03:44 38.62943 27.06280 10617 ft 307 kts
2026-05-04 03:44 38.65135 27.06696 10812 ft 330 kts
2026-05-04 03:45 38.67484 27.07176 10986 ft 353 kts
2026-05-04 03:45 38.69982 27.07681 11190 ft 372 kts
2026-05-04 03:45 38.72581 27.08193 11680 ft 381 kts
2026-05-04 03:45 38.75220 27.08700 12328 ft 385 kts
2026-05-04 03:46 38.77845 27.09196 13071 ft 386 kts
2026-05-04 03:46 38.80511 27.09693 13754 ft 388 kts
2026-05-04 03:46 38.83202 27.10193 14330 ft 393 kts
2026-05-04 03:46 38.85923 27.10698 14945 ft 397 kts
2026-05-04 03:47 38.88664 27.11207 15568 ft 400 kts
2026-05-04 03:47 38.91435 27.11722 16141 ft 403 kts
2026-05-04 03:47 38.94234 27.12243 16666 ft 408 kts
2026-05-04 03:47 38.97046 27.12767 17218 ft 411 kts
2026-05-04 03:48 38.99887 27.13296 17779 ft 414 kts
2026-05-04 03:48 39.02748 27.13822 18301 ft 417 kts
2026-05-04 03:48 39.05633 27.14344 18832 ft 419 kts
2026-05-04 03:48 39.08534 27.14867 19338 ft 422 kts
2026-05-04 03:49 39.11460 27.15394 19814 ft 425 kts
2026-05-04 03:49 39.14363 27.15919 20242 ft 429 kts
2026-05-04 03:49 39.17331 27.16456 20688 ft 432 kts
2026-05-04 03:49 39.20322 27.16999 21112 ft 436 kts
2026-05-04 03:50 39.23307 27.17542 21508 ft 439 kts
2026-05-04 03:50 39.26335 27.18093 21877 ft 443 kts
2026-05-04 03:50 39.29408 27.18653 22237 ft 446 kts
2026-05-04 03:50 39.32478 27.19213 22632 ft 448 kts
2026-05-04 03:51 39.35584 27.19780 22969 ft 451 kts
2026-05-04 03:51 39.38712 27.20351 23237 ft 455 kts
2026-05-04 03:51 39.41843 27.20924 23627 ft 456 kts
2026-05-04 03:51 39.44995 27.21501 24019 ft 457 kts
2026-05-04 03:52 39.48135 27.22076 24401 ft 458 kts
2026-05-04 03:52 39.51287 27.22828 24715 ft 460 kts 14°
2026-05-04 03:52 39.54353 27.24025 25025 ft 463 kts 18°
2026-05-04 03:52 39.57432 27.25340 25358 ft 464 kts 18°
2026-05-04 03:53 39.60507 27.26660 25651 ft 467 kts 18°
2026-05-04 03:53 39.63554 27.27943 25939 ft 469 kts 17°
2026-05-04 03:53 39.66710 27.29243 26290 ft 469 kts 17°
2026-05-04 03:53 39.69775 27.30492 26722 ft 467 kts 17°
2026-05-04 03:54 39.72875 27.31754 27002 ft 467 kts 17°
2026-05-04 03:54 39.75975 27.33028 26991 ft 467 kts 17°
2026-05-04 03:54 39.79073 27.34313 26996 ft 464 kts 17°
2026-05-04 03:54 39.82136 27.35587 27002 ft 462 kts 17°
2026-05-04 03:55 39.85212 27.36867 27005 ft 462 kts 17°
2026-05-04 03:55 39.88278 27.38143 27005 ft 462 kts 17°
2026-05-04 03:55 39.91337 27.39415 27001 ft 461 kts 17°
2026-05-04 03:55 39.94379 27.40677 26993 ft 457 kts 17°
2026-05-04 03:56 39.97414 27.41926 26997 ft 457 kts 17°
2026-05-04 03:56 40.00413 27.43158 27004 ft 459 kts 17°
2026-05-04 03:56 40.03461 27.44409 27005 ft 461 kts 17°
2026-05-04 03:56 40.06534 27.45674 27005 ft 461 kts 17°
2026-05-04 03:57 40.09587 27.46933 26844 ft 459 kts 17°
2026-05-04 03:57 40.12605 27.48180 26442 ft 454 kts 17°
2026-05-04 03:57 40.15604 27.49421 26069 ft 448 kts 17°
2026-05-04 03:57 40.18559 27.50643 25692 ft 442 kts 17°
2026-05-04 03:58 40.24388 27.53059 24945 ft 436 kts 17°
2026-05-04 03:58 40.27273 27.54257 24572 ft 434 kts 17°
2026-05-04 03:58 40.30128 27.55528 24190 ft 432 kts 24°
2026-05-04 03:59 40.32674 27.57575 23823 ft 430 kts 37°
2026-05-04 03:59 40.35004 27.59934 23463 ft 428 kts 38°
2026-05-04 03:59 40.37348 27.62325 23082 ft 426 kts 37°
2026-05-04 03:59 40.39705 27.64688 22707 ft 425 kts 37°
2026-05-04 04:00 40.42059 27.67008 22338 ft 423 kts 36°
2026-05-04 04:00 40.44417 27.69314 21957 ft 421 kts 36°
2026-05-04 04:00 40.46836 27.71468 21564 ft 420 kts 26°
2026-05-04 04:00 40.49527 27.72907 21211 ft 417 kts 20°
2026-05-04 04:01 40.52257 27.74190 20836 ft 415 kts 19°
2026-05-04 04:01 40.54971 27.75475 20459 ft 413 kts 20°
2026-05-04 04:01 40.57652 27.76789 20084 ft 411 kts 20°
2026-05-04 04:01 40.59422 27.77675 19834 ft 409 kts 20°
2026-05-04 04:02 40.62953 27.79484 19325 ft 405 kts 24°
2026-05-04 04:02 40.64557 27.80715 19051 ft 405 kts 38°
2026-05-04 04:02 40.66465 27.83395 18682 ft 398 kts 57°
2026-05-04 04:02 40.67865 27.87772 18192 ft 389 kts 79°
2026-05-04 04:03 40.68061 27.90148 17940 ft 384 kts 89°
2026-05-04 04:03 40.68045 27.93633 17576 ft 378 kts 91°
2026-05-04 04:03 40.67996 27.97027 17200 ft 372 kts 91°
2026-05-04 04:03 40.67954 28.00411 16823 ft 368 kts 90°
2026-05-04 04:04 40.67937 28.03767 16443 ft 363 kts 90°
2026-05-04 04:04 40.67930 28.07075 16065 ft 359 kts 90°
2026-05-04 04:04 40.67925 28.10345 15689 ft 355 kts 90°
2026-05-04 04:04 40.67919 28.13577 15313 ft 351 kts 90°
2026-05-04 04:05 40.67911 28.16784 14938 ft 348 kts 90°
2026-05-04 04:05 40.67902 28.19963 14561 ft 345 kts 90°
2026-05-04 04:05 40.67892 28.23113 14185 ft 342 kts 90°
2026-05-04 04:05 40.67881 28.26235 13801 ft 339 kts 90°
2026-05-04 04:06 40.67869 28.29328 13452 ft 336 kts 90°
2026-05-04 04:06 40.67854 28.32388 13127 ft 332 kts 91°
2026-05-04 04:06 40.67801 28.35427 12797 ft 328 kts 91°
2026-05-04 04:06 40.67733 28.38343 12459 ft 318 kts 92°
2026-05-04 04:07 40.67666 28.41218 12122 ft 308 kts 91°
2026-05-04 04:07 40.67604 28.44004 11787 ft 299 kts 91°
2026-05-04 04:07 40.67544 28.46707 11453 ft 292 kts 91°
2026-05-04 04:07 40.67485 28.49348 11120 ft 285 kts 91°
2026-05-04 04:08 40.67428 28.51923 10788 ft 278 kts 91°
2026-05-04 04:08 40.67372 28.54442 10457 ft 272 kts 91°
2026-05-04 04:08 40.67317 28.56882 10130 ft 267 kts 91°
2026-05-04 04:08 40.67261 28.59305 9804 ft 262 kts 92°
2026-05-04 04:09 40.67206 28.61688 9470 ft 258 kts 92°
2026-05-04 04:09 40.67178 28.64030 9135 ft 253 kts 85°
2026-05-04 04:09 40.67606 28.66250 8809 ft 248 kts 70°
2026-05-04 04:09 40.68190 28.68374 8487 ft 245 kts 70°
2026-05-04 04:10 40.68769 28.70470 8154 ft 242 kts 70°
2026-05-04 04:10 40.69334 28.72539 7825 ft 239 kts 70°
2026-05-04 04:10 40.69887 28.74578 7570 ft 234 kts 70°
2026-05-04 04:10 40.70428 28.76584 7360 ft 229 kts 70°
2026-05-04 04:11 40.70924 28.78434 7131 ft 224 kts 70°
2026-05-04 04:11 40.71436 28.80353 6898 ft 222 kts 70°
2026-05-04 04:11 40.71949 28.82279 6649 ft 222 kts 70°
2026-05-04 04:11 40.72452 28.84169 6395 ft 221 kts 70°
2026-05-04 04:12 40.72958 28.86076 6136 ft 218 kts 70°
2026-05-04 04:12 40.73445 28.87917 5881 ft 213 kts 70°
2026-05-04 04:12 40.73925 28.89731 5637 ft 207 kts 70°
2026-05-04 04:12 40.74394 28.91503 5390 ft 201 kts 70°
2026-05-04 04:13 40.74847 28.93216 5161 ft 196 kts 70°
2026-05-04 04:13 40.75292 28.94903 4936 ft 192 kts 70°
2026-05-04 04:13 40.75401 28.95313 4888 ft 192 kts 70°
2026-05-04 04:13 40.75587 28.96021 4797 ft 192 kts 70°
2026-05-04 04:14 40.75905 28.97228 4627 ft 192 kts 70°
2026-05-04 04:14 40.76342 28.98887 4412 ft 191 kts 70°
2026-05-04 04:14 40.76779 29.00547 4188 ft 191 kts 71°
2026-05-04 04:14 40.77291 29.02160 3956 ft 191 kts 59°
2026-05-04 04:15 40.77999 29.03632 3737 ft 188 kts 56°
2026-05-04 04:15 40.78709 29.05060 3524 ft 182 kts 56°
2026-05-04 04:15 40.79381 29.06425 3336 ft 171 kts 57°
2026-05-04 04:15 40.79984 29.07661 3206 ft 154 kts 57°
2026-05-04 04:16 40.80546 29.08819 3058 ft 149 kts 59°
2026-05-04 04:16 40.81024 29.10042 2886 ft 150 kts 63°
2026-05-04 04:16 40.81483 29.11284 2717 ft 150 kts 64°
2026-05-04 04:16 40.81942 29.12527 2503 ft 150 kts 64°
2026-05-04 04:17 40.82399 29.13765 2293 ft 149 kts 64°
2026-05-04 04:17 40.82852 29.14993 2074 ft 148 kts 64°
2026-05-04 04:17 40.83302 29.16213 1892 ft 148 kts 64°
2026-05-04 04:17 40.83753 29.17434 1724 ft 148 kts 64°
2026-05-04 04:18 40.84203 29.18652 1540 ft 148 kts 64°
2026-05-04 04:18 40.84653 29.19871 1369 ft 147 kts 64°
2026-05-04 04:18 40.85102 29.21086 1195 ft 147 kts 64°
2026-05-04 04:18 40.85550 29.22297 1021 ft 147 kts 64°
2026-05-04 04:19 40.85997 29.23506 841 ft 146 kts 64°
2026-05-04 04:19 40.86405 29.24614 699 ft 145 kts 64°
2026-05-04 04:19 40.86700 29.25412 626 ft 145 kts 64°
2026-05-04 04:19 40.87141 29.26608 525 ft 144 kts 64°
2026-05-04 04:20 40.87356 29.27191 488 ft 145 kts 64°
2026-05-04 04:20 40.87797 29.28388 404 ft 145 kts 64°
2026-05-04 04:20 40.88237 29.29580 324 ft 144 kts 64°
2026-05-04 04:20 40.88676 29.30771 297 ft 144 kts 64°
2026-05-04 04:21 40.89041 29.31778 307 ft 82 kts 66°
2026-05-04 04:21 40.89170 29.32113 304 ft 19 kts 60°
2026-05-04 04:21 40.89233 29.32260 303 ft 18 kts 60°
2026-05-04 04:21 40.89313 29.32384 303 ft 17 kts 36°
2026-05-04 04:22 40.89400 29.32460 306 ft 15 kts 33°
2026-05-04 04:22 40.89478 29.32438 308 ft 13 kts 283°
2026-05-04 04:22 40.89529 29.32313 307 ft 18 kts 292°
2026-05-04 04:22 40.89499 29.32145 307 ft 21 kts 246°
2026-05-04 04:23 40.89438 29.31956 308 ft 24 kts 246°
2026-05-04 04:23 40.89371 29.31754 307 ft 24 kts 246°
2026-05-04 04:23 40.89378 29.31614 306 ft 9 kts 292°
2026-05-04 04:23 40.89380 29.31535 307 ft 8 kts 252°
2026-05-04 04:24 40.89359 29.31471 306 ft 7 kts 245°
2026-05-04 04:24 40.89336 29.31405 305 ft 10 kts 244°
2026-05-04 04:24 40.89317 29.31355 305 ft 0 kts 244°